This is the latest recevied weather packets stored in our database for station/object WX5KDM. If no packets are shown the sender has not sent any weather packets the latest 10 day(s).
| Time | Temp. | Humidity | Pressure | Rain* | Wind** | Luminosity | Snow |
|---|---|---|---|---|---|---|---|
| 1778002286 | 20.56° C | 78% | 1012.5 hPa | 0 mm | - | - | - |
| 1778001984 | 20.56° C | 77% | 1012.7 hPa | 0 mm | - | - | - |
| 1778001680 | 20.56° C | 76% | 1012.7 hPa | 0 mm | - | - | - |
| 1778001374 | 21.11° C | 75% | 1012.6 hPa | 0 mm | - | - | - |
| 1778001072 | 20.56° C | 74% | 1012.8 hPa | 0 mm | - | - | - |
| 1778000769 | 21.11° C | 74% | 1012.7 hPa | 0 mm | - | - | - |
| 1778000465 | 21.11° C | 70% | 1013.2 hPa | 0 mm | - | - | - |
| 1778000160 | 21.11° C | 70% | 1012.9 hPa | 0 mm | - | - | - |
| 1777999856 | 21.67° C | 70% | 1013.5 hPa | 0 mm | - | - | - |
| 1777999552 | 21.11° C | 70% | 1013.3 hPa | 0 mm | - | - | - |
| 1777999250 | 21.11° C | 69% | 1012.9 hPa | 0 mm | - | - | - |
| 1777998949 | 21.67° C | 68% | 1013.2 hPa | 0 mm | - | - | - |
| 1777998645 | 21.67° C | 69% | 1013.4 hPa | 0 mm | - | - | - |
| 1777998344 | 21.67° C | 66% | 1013.8 hPa | 0 mm | - | - | - |
| 1777998041 | 21.67° C | 68% | 1013.7 hPa | 0 mm | - | - | - |
| 1777997737 | 21.67° C | 67% | 1013.7 hPa | 0 mm | - | - | - |
| 1777997435 | 21.67° C | 67% | 1013.7 hPa | 0 mm | - | - | - |
| 1777997133 | 21.67° C | 68% | 1013.5 hPa | 0 mm | - | - | - |
| 1777996830 | 21.67° C | 67% | 1013.4 hPa | 0 mm | - | - | - |
| 1777996526 | 21.67° C | 66% | 1013.6 hPa | 0 mm | - | - | - |
| 1777996223 | 22.22° C | 64% | 1013.5 hPa | 0 mm | - | - | - |
| 1777995919 | 22.22° C | 65% | 1013.3 hPa | 0 mm | - | - | - |
| 1777995615 | 22.22° C | 64% | 1013.5 hPa | 0 mm | - | - | - |
| 1777995313 | 22.78° C | 63% | 1013.5 hPa | 0 mm | - | - | - |
| 1777995009 | 22.22° C | 64% | 1013.4 hPa | 0 mm | - | - | - |
* Rain latest hour (hover to see other rain measurements)
** Current wind speed in m/s (hover to see current wind gust speed)